weather.gov     
National Weather Service

Regional Weather Roundup
NWS Homepage
This page is being discontinued on March 12, 2014.
The same data is available at this site. Please update your bookmarks.
Thank you, and we apologize for the inconvenience.
Please send an email to SR-SRH.Webmaster@noaa.gov with any concerns.


Current Version
Previous Version:    01  02  03  04  05  06  07  08  09  10  11  12  13  14  15  16  17  18  19  20  21  22  23  24  25  26  27  28  29  30  
   31  32  33  34  35  36  37  38  39  40  41  42  43  44  45  46  47  48  49  50  51  52  53  
[Printable]
183
ASUS44 KJAN 221510
RWRMS

MISSISSIPPI HOURLY WEATHER ROUNDUP
NATIONAL WEATHER SERVICE JACKSON MS
900 AM CST SAT NOV 22 2014

NOTE: "FAIR: INDICATES FEW OR NO CLOUDS BELOW 12,000 FEET WITH NO
SIGNIFICANT WEATHER AND/OR OBSTRUCTIONS TO VISIBILITY.

MSZ001>002-007>008-010>013-018>021-025>028-034>036-221600-
NORTHWEST MISSISSIPPI

CITY           SKY/WX    TMP DP  RH WIND       PRES   REMARKS
CLARKSDALE     FAIR      55  46  71 SE12      30.25F
CLEVELAND      PTSUNNY   56  47  71 SE12G17   30.24S
GREENWOOD      CLOUDY    56  43  61 SE9       30.26F
GREENVILLE     CLOUDY    56  48  74 SE10      30.22F
GRENADA        CLOUDY    54  43  66 E8        30.28F
OLIVE BRANCH   PTSUNNY   55  43  62 SE12G20   30.26F
OXFORD         FAIR      54  39  58 S12G20    30.29S
TUNICA         CLOUDY    55  45  67 SE12      30.26S
$$

MSZ003>006-009-014>017-022>024-029>033-037>039-221600-
NORTHEAST MISSISSIPPI

CITY           SKY/WX    TMP DP  RH WIND       PRES   REMARKS
COLUMBUS AFB   MIX PCPN  57  40  52 SE10      30.32F
CORINTH        FAIR      57  37  47 S10       30.29F
GOLDN TRIANGLE PTSUNNY   55  39  54 SE14      30.31F
STARKVILLE     CLOUDY    54  41  62 SE10      30.31S
TUPELO         SUNNY     54  39  57 S10       30.31F
$$

MSZ040-058-221600-
CENTRAL MISSISSIPPI

CITY           SKY/WX    TMP DP  RH WIND       PRES   REMARKS
JACKSON INTL   MOSUNNY   58  41  53 SE13G22   30.27F
JACKSON HAWKNS MOSUNNY   59  40  49 SE14      30.27S
MERIDIAN KEY   SUNNY     58  38  47 VRB7      30.32R
MERIDIAN NAS     N/A    N/A N/A N/A MISG      30.33S
RAYMOND        FAIR      59  55  88 SE14      30.25F
VICKSBURG      PTSUNNY   61  46  57 SE13      30.23F
$$

MSZ059>079-221600-
SOUTH MISSISSIPPI

CITY           SKY/WX    TMP DP  RH WIND       PRES   REMARKS
BROOKHAVEN     FAIR      57  45  62 E7        30.26F
HATTIESBURG    SUNNY     55  43  63 SE7       30.29S
MCCOMB         MOSUNNY   59  47  64 E8        30.24F
NATCHEZ        PTSUNNY   59  46  63 E8        30.22S
PINE BELT      SUNNY     55  41  58 SE8       30.29S
$$

MSZ080>082-221600-
COASTAL MISSISSIPPI

CITY           SKY/WX    TMP DP  RH WIND       PRES   REMARKS
BAY ST LOUIS   SUNNY     63  48  59 E7        30.25S
BILOXI         MOSUNNY   63  49  60 E10       30.25S
PASCAGOULA     MOSUNNY   64  47  53 E9        30.26F
GULFPORT       MOSUNNY   62  49  62 E14       30.24F
$$




U.S. Dept. of Commerce
NOAA National Weather Service
1325 East West Highway
Silver Spring, MD 20910
E-mail: w-nws.webmaster@noaa.gov
Page last modified: May 16, 2007
NATIONAL WEATHER SERVICE: for Safety, for Work, for Fun - FOR LIFE